Temp_Advection
nan nan nan nan nan nan nan nan nan nan nan nan nan nan nan nan nan nan nan nan nan nan nan nan nan nan nan nan nan nan nan nan nan nan nan nan nan nan nan nan nan nan nan nan nan
nan -0 -0 -0 -0 -0 -0 -0 -0 -0 -0 -0 -0 -0 0 0 0 -1 -0 0 -0 -0 -0 -0 -0 -0 -0 -0 -0 0 -0 0 -1 -1 0 -0 -1 -1 -0 -1 -1 0 1 1 nan
nan -0 -0 -0 -0 -0 -0 0 -0 -0 -0 0 0 -0 -0 0 -0 -1 -0 -0 -0 -0 -0 -0 -1 -0 -0 -0 -0 0 0 -0 -0 -1 1 -1 -1 0 -0 -1 -0 0 0 1 nan
nan -0 -0 -0 -0 -0 0 -0 -0 -1 -0 0 0 -0 0 0 -0 -0 0 -0 -0 -0 0 -0 -1 -0 -0 -0 -0 -0 -0 -0 -0 -0 0 -1 -1 -1 -1 -0 0 1 0 1 nan
nan 0 -0 0 0 -0 0 -0 -0 -0 0 0 0 0 0 -0 -1 -0 -0 0 -0 0 0 -1 -0 -0 -0 -1 -0 -0 -1 -0 -0 -0 -1 0 -1 -1 -0 0 0 0 1 0 nan
nan -0 1 1 1 0 -0 0 -0 -0 -0 0 0 0 -0 -0 -0 -0 -0 -0 0 -0 -0 -1 -0 -0 -1 0 1 -1 -1 -1 -0 -0 -0 -0 0 -0 -0 -0 0 0 0 1 nan
nan -0 -0 1 0 0 0 -0 -0 0 0 0 0 0 -0 -1 0 -0 -0 0 0 0 -0 -0 -0 -0 0 -0 -1 -1 -0 -0 -1 -0 -0 -2 -1 0 -1 -0 0 0 0 0 nan
nan 2 -0 -1 -0 -0 -0 -0 0 0 0 0 0 -0 -0 -0 -0 -0 0 -0 0 0 -0 -0 -0 -0 0 -0 -0 -0 -0 -0 -0 -1 -0 -1 -0 -1 -0 -0 -0 0 0 0 nan
nan 2 1 -0 -0 -0 -0 -0 -0 -0 0 0 -0 -0 -0 -0 -0 -0 0 -0 -0 -0 -0 -0 0 0 -0 0 0 0 -0 -0 -0 -0 -0 0 -0 -1 -1 -0 -0 -0 0 0 nan
nan 0 1 0 -0 -0 -0 0 -0 -0 0 -0 -0 -0 -0 -0 0 0 -0 -0 -0 -0 0 0 0 0 0 -0 -0 -0 -1 0 -0 -0 -0 -0 -0 -1 -0 -0 -0 -0 0 0 nan
nan 0 0 0 -0 0 0 0 0 -0 -0 -0 -0 -0 -0 0 -0 0 0 -0 -0 0 -0 0 0 -0 -1 -1 -1 -0 -0 0 -0 -0 -0 -0 -1 -0 -0 -0 -0 -0 -0 0 nan
nan -0 -0 0 -0 0 0 -0 -0 -0 -0 -1 0 0 0 -0 -0 -0 0 -0 -0 0 -0 0 -1 -1 -1 -0 0 0 0 0 -1 0 0 0 1 -1 -1 -0 -0 -0 -0 -0 nan
nan -0 -0 -0 -0 0 0 0 -0 -0 -1 -0 0 -0 -0 -0 -0 -0 -0 -0 -0 -0 -0 -0 -1 -1 0 0 -0 0 0 0 -0 0 -0 -0 0 -1 -1 -0 -0 -0 -0 -0 nan
nan -0 -0 -0 -0 0 -0 -0 0 0 -0 0 -0 -0 0 -0 -0 -0 -0 0 0 -0 -0 -1 -0 1 0 -0 0 -0 -0 1 -1 -0 -0 0 -0 -0 -1 -0 -0 -0 -0 -0 nan
nan -0 -0 -0 -0 0 -0 -0 -0 0 -0 0 -0 0 -0 -0 -0 0 0 0 -0 -0 0 -0 0 0 -0 -1 0 -0 -0 1 -1 -0 0 -0 -0 0 -1 -0 -0 -1 -0 -0 nan
nan -0 -0 -0 0 -0 -0 0 0 -0 -0 0 -0 -0 -0 -0 0 -0 0 0 -0 -0 -0 -0 0 0 -0 0 0 0 -0 -1 -0 0 0 -0 -0 0 -0 -1 -1 -1 -1 -0 nan
nan 0 -0 0 0 -0 -0 0 -0 -0 -0 -0 -0 -0 0 -0 0 -0 0 0 0 0 -0 -0 0 -0 0 0 0 0 -0 0 0 -0 -0 -0 -0 -0 1 1 -0 -1 -0 0 nan
nan 0 0 -0 0 -0 0 -0 -0 0 -0 -0 -0 0 0 -0 0 1 0 -0 -0 -0 0 1 -0 -1 0 -0 -0 0 0 -0 -0 -0 -0 0 0 1 -1 -0 1 1 1 1 nan
nan 0 0 -0 -0 0 -0 -0 -0 -0 -0 -0 -0 -0 -0 0 0 -0 0 0 0 0 0 -0 -1 -0 -0 -0 0 0 -1 -0 0 -0 0 0 -0 -0 -0 0 0 1 0 0 nan
nan 0 -0 0 -0 0 -0 -0 -0 -0 -0 -0 -0 -0 0 -0 0 -0 0 -0 0 0 0 -0 -1 -0 0 1 1 -0 -0 0 0 0 -0 -0 -0 1 0 -0 0 0 0 -0 nan
nan 0 0 -0 0 -0 -0 -0 -0 -0 -0 -0 0 -0 -0 -0 0 0 0 0 -0 -0 1 0 -0 -0 0 1 1 -0 0 -0 0 0 -0 -0 1 0 0 -0 -0 -0 -1 -0 nan
nan -0 0 0 -0 -0 -0 -0 -0 -0 0 0 -0 0 0 0 0 0 0 0 0 0 -0 -0 -0 -0 1 -0 -0 -0 1 1 0 0 -0 0 1 0 -0 0 -1 -1 -1 -1 nan
nan -0 0 0 -0 -0 -0 0 0 -0 -0 -0 -0 -0 -0 0 0 -0 0 -0 0 -0 0 -0 -0 -0 0 0 -0 0 0 -0 0 0 0 0 2 0 0 0 -0 -1 -1 -0 nan
nan -0 0 -0 -0 -0 -0 -0 0 0 -0 -0 -0 -0 0 -0 0 0 0 -0 -0 0 0 0 -0 -0 -0 0 0 -0 -0 0 1 0 -0 1 0 0 0 0 0 -0 -0 0 nan
nan -0 -0 -0 0 -0 -0 -0 -0 -0 0 0 0 0 0 0 -0 -0 -1 -0 0 -0 -0 -0 -0 -0 -0 0 0 0 -0 -0 0 -0 0 0 2 0 0 0 0 0 -0 0 nan
nan -0 -0 -0 -0 -0 0 -0 -0 -0 -0 0 0 -0 -0 0 0 0 -0 -0 0 0 -0 0 -0 -0 -0 0 0 0 0 -0 -0 -0 1 0 -0 0 1 -0 -0 0 0 0 nan
nan nan nan nan nan nan nan nan nan nan nan nan nan nan nan nan nan nan nan nan nan nan nan nan nan nan nan nan nan nan nan nan nan nan nan nan nan nan nan nan nan nan nan nan nan
Wind_Speed
16 15 12 12 12 15 14 12 11 9 6 5 5 8 11 12 11 14 15 12 16 8 15 12 11 10 12 9 8 4 2 8 13 9 2 12 5 8 9 13 6 5 7 14 13
18 16 16 14 15 15 14 12 11 6 7 7 5 7 11 11 10 16 16 13 13 12 21 21 19 15 8 9 6 4 2 2 6 7 1 14 10 9 5 9 7 10 14 15 17
19 16 16 16 14 15 13 13 12 9 7 6 3 6 8 5 6 10 12 18 16 17 22 18 16 17 12 11 7 4 1 4 6 12 12 16 17 6 17 4 4 9 15 15 17
19 19 18 17 16 13 13 12 12 10 6 5 4 6 6 8 3 4 7 12 19 20 20 20 21 18 11 9 19 5 6 6 2 7 9 8 11 8 11 7 9 13 15 16 17
21 20 19 17 17 15 10 11 8 7 4 3 4 4 6 5 10 7 7 8 22 22 20 22 24 21 14 15 18 9 8 7 9 17 16 15 11 10 8 10 11 12 14 15 14
22 22 20 18 16 14 9 8 6 6 6 4 4 6 6 5 3 6 9 5 23 26 21 24 20 20 15 11 12 13 15 15 10 9 8 10 6 3 7 11 12 12 12 14 13
22 21 20 17 15 11 9 6 4 5 5 5 5 6 9 12 1 10 4 8 20 24 18 21 18 18 13 5 12 24 12 9 10 12 5 19 5 5 17 14 12 13 11 12 13
21 21 20 16 13 10 5 2 2 3 4 5 7 7 6 8 13 12 4 6 17 19 16 16 16 11 9 16 8 6 7 6 11 13 11 13 3 10 18 18 14 14 12 11 11
19 18 18 15 10 4 2 2 3 2 3 6 7 5 7 3 5 3 6 10 13 16 15 14 13 6 7 7 3 7 5 11 8 17 8 11 3 15 19 17 15 14 14 13 12
17 18 19 14 6 3 6 6 9 8 8 5 2 4 6 2 2 5 7 9 14 17 12 12 8 4 4 8 9 9 14 8 9 13 8 11 3 12 17 14 13 14 14 15 14
19 20 19 13 3 7 9 7 1 1 7 7 2 4 2 2 2 6 9 13 15 16 9 14 9 14 14 14 12 12 13 14 7 11 9 11 8 13 18 16 17 17 16 16 16
20 20 17 10 6 9 8 5 5 5 8 18 14 8 3 3 3 7 14 12 14 13 14 9 17 12 14 15 17 16 13 2 9 7 7 9 11 14 21 21 23 22 20 19 18
19 17 14 7 8 5 3 1 3 6 5 4 18 15 6 6 5 13 18 17 10 14 16 11 11 18 15 14 15 15 12 6 5 7 3 3 6 12 15 17 22 22 22 22 24
18 15 10 7 6 1 2 5 3 7 4 6 4 4 11 6 6 13 22 11 7 14 14 15 15 19 18 15 13 14 9 10 15 7 4 9 4 12 14 15 17 23 24 27 27
14 14 10 5 4 3 7 5 3 3 3 3 5 4 3 8 5 8 17 16 6 11 10 8 8 11 15 18 12 12 3 10 10 6 3 7 4 6 16 11 17 28 34 31 30
11 10 8 7 6 6 6 2 4 3 3 4 5 7 6 14 5 4 11 11 6 9 10 13 9 5 14 10 10 5 3 5 6 3 6 8 8 6 9 14 20 22 28 30 30
11 9 8 5 2 6 3 3 3 4 2 5 1 4 8 7 11 8 9 10 8 5 8 11 14 5 8 8 9 7 9 3 4 5 6 9 10 11 10 7 11 24 30 32 34
11 8 7 4 4 1 3 3 5 1 4 3 3 5 5 7 11 12 5 4 17 13 4 11 10 19 11 13 14 15 15 6 8 8 6 12 8 7 3 5 8 30 37 38 35
10 9 7 4 2 3 2 4 4 6 4 7 10 9 10 12 2 1 5 11 8 18 8 6 12 7 17 13 17 11 19 15 9 12 3 5 1 1 4 3 2 31 38 35 35
8 5 7 8 3 5 4 6 4 3 5 5 5 4 8 3 1 2 4 3 10 12 14 3 4 6 14 15 17 13 8 9 9 7 14 6 7 7 7 10 12 20 30 32 34
6 4 5 3 5 5 5 5 3 3 3 5 8 12 8 4 3 3 4 4 5 5 13 7 5 2 2 14 20 13 12 10 7 12 7 7 6 2 2 15 20 21 30 33 33
2 3 1 2 4 5 5 3 5 5 5 5 5 8 9 10 5 5 7 6 5 4 4 1 4 9 15 4 5 15 21 19 9 13 15 9 8 1 4 14 23 26 30 32 33
3 5 3 5 3 4 3 4 5 4 7 4 5 5 8 6 4 5 6 4 2 0 3 3 3 3 4 1 3 5 9 17 21 3 15 11 8 1 6 12 24 30 31 32 33
4 2 4 6 7 4 6 6 3 4 4 5 7 7 7 9 7 5 3 1 1 1 2 0 3 7 8 4 1 5 11 18 19 7 18 19 2 3 11 16 21 29 34 34 35
2 1 1 2 0 3 4 5 7 5 6 3 5 8 6 3 6 5 6 4 4 2 1 2 4 3 10 11 8 8 10 14 21 21 11 10 16 12 18 19 25 31 33 35 35
3 4 4 5 3 4 4 4 5 5 1 6 7 8 9 6 7 9 6 2 4 2 1 2 4 3 5 7 5 6 10 12 10 18 19 2 1 4 19 25 27 31 34 33 34
6 6 2 4 3 2 1 3 4 4 6 5 5 6 8 6 11 13 13 13 7 3 2 3 3 3 7 2 3 6 8 12 6 5 8 17 9 10 14 16 28 32 32 32 32
Wind_Direction
350 340 338 314 323 316 307 308 307 303 296 249 238 240 251 248 248 245 251 220 223 207 175 172 171 172 163 167 183 218 212 221 231 231 181 130 104 47 78 106 83 97 142 143 149
350 343 336 328 305 306 305 308 305 292 271 273 270 252 238 237 242 254 259 241 220 210 178 173 174 167 169 179 199 187 221 256 22 336 195 145 115 119 100 110 78 102 128 141 144
347 343 333 324 323 317 297 303 303 283 282 301 295 234 243 222 239 257 247 248 227 203 181 185 179 174 187 175 182 203 245 105 11 343 139 107 97 118 130 71 31 159 145 145 145
344 340 337 329 324 317 313 293 295 263 264 282 242 237 230 186 233 181 254 233 217 202 181 197 194 185 198 184 195 119 70 86 13 12 89 94 108 73 53 100 140 151 152 150 149
341 334 334 327 325 320 313 290 292 257 236 232 228 230 206 213 257 296 296 276 201 194 187 203 206 193 219 193 190 174 126 93 108 99 84 115 80 119 98 129 145 151 156 152 152
335 334 333 332 329 323 313 296 288 242 220 217 206 237 225 251 251 284 288 263 193 188 190 203 211 197 216 239 218 122 125 128 132 111 122 110 131 92 167 159 150 157 160 160 159
336 332 334 335 331 330 311 294 246 235 241 223 191 226 237 233 104 304 317 236 193 190 198 202 204 216 231 108 85 121 123 124 148 157 132 130 141 190 161 164 153 160 169 167 165
339 336 334 334 335 329 320 299 247 218 216 195 192 202 247 258 255 281 279 194 169 191 190 199 218 237 250 125 117 161 144 157 175 173 163 199 175 144 168 167 166 169 172 176 173
346 344 338 335 336 360 3 63 69 72 137 160 174 196 280 278 287 262 192 179 172 187 192 201 220 212 122 147 149 225 187 219 169 192 145 207 126 163 178 178 172 175 179 182 180
351 346 341 335 347 96 88 79 91 90 109 135 241 225 241 265 244 163 166 180 176 177 199 192 208 143 195 194 195 191 227 239 164 184 161 201 104 154 181 187 185 183 187 187 193
352 348 343 336 113 134 108 86 47 114 203 215 250 226 66 278 143 168 171 164 175 177 190 190 204 200 196 211 235 221 199 224 73 171 168 199 174 183 182 195 193 192 192 192 200
353 354 353 353 131 133 96 29 53 342 297 247 240 246 232 206 192 182 170 171 195 194 205 178 217 203 225 211 226 252 265 260 84 149 199 202 224 174 180 203 199 191 193 197 197
358 4 12 45 104 123 51 137 23 351 265 249 217 225 205 221 245 184 182 204 195 205 211 203 208 227 216 229 219 236 249 235 151 144 273 307 260 161 194 188 202 203 202 201 207
0 5 20 79 59 293 338 282 345 358 278 146 186 259 205 210 244 205 193 192 215 214 218 236 223 204 234 229 225 230 233 260 137 138 214 167 261 208 179 187 194 197 197 197 206
360 4 17 4 86 17 268 243 308 2 304 149 139 166 186 203 127 192 199 220 250 227 213 218 222 242 217 228 220 235 6 238 154 198 299 185 290 250 148 196 205 201 199 192 199
346 353 6 13 24 268 276 273 2 239 246 125 126 185 179 215 240 139 188 220 252 275 251 253 221 233 228 235 217 214 78 33 127 173 245 213 200 223 180 209 210 196 193 186 178
328 334 344 350 267 292 175 2 277 243 135 136 196 180 221 203 224 185 200 197 212 200 238 238 238 238 256 214 203 189 145 164 219 205 237 205 211 222 191 190 185 190 183 174 174
316 318 315 343 327 251 126 259 262 358 31 55 265 268 244 227 216 205 167 241 229 226 272 214 230 214 198 216 204 198 183 189 207 220 233 204 233 226 48 34 152 181 168 163 167
318 316 322 318 299 190 283 243 310 24 6 344 305 254 258 227 214 48 252 249 212 230 217 222 227 189 187 191 202 187 214 212 277 283 276 248 173 92 106 41 102 140 148 151 157
322 297 260 295 212 176 240 249 304 52 346 302 284 301 313 59 211 304 196 250 233 204 211 287 274 256 190 191 228 194 160 205 226 237 247 226 236 217 203 177 142 143 147 148 152
334 279 228 281 179 203 236 257 358 8 0 294 297 310 304 329 294 248 235 280 13 319 204 179 231 279 115 204 202 202 193 211 202 221 224 248 242 253 315 178 158 150 148 148 150
301 250 264 194 233 210 239 308 9 285 231 258 284 285 272 287 207 237 221 223 149 178 298 92 254 219 208 346 301 241 215 213 217 204 225 252 250 251 333 144 147 145 147 148 153
300 295 301 191 262 265 249 199 213 281 274 265 280 302 326 314 320 273 273 82 89 77 303 354 261 284 185 190 294 231 216 228 237 263 221 207 240 162 106 126 146 144 146 149 152
315 275 191 203 273 293 315 291 278 185 252 277 277 301 279 279 270 257 242 90 67 210 267 206 265 232 268 311 258 257 233 220 218 224 228 236 204 242 155 145 147 147 149 150 154
282 11 287 289 196 325 298 292 289 285 207 209 271 243 267 298 339 287 307 358 182 112 42 263 271 264 261 272 218 227 245 256 229 225 211 215 222 186 179 161 155 149 147 147 153
359 359 327 280 310 265 229 253 258 307 289 275 242 320 328 290 274 300 6 27 243 130 253 206 280 291 271 252 223 247 234 237 252 241 243 258 49 279 135 141 146 151 152 150 150
358 342 341 269 187 199 284 350 26 43 286 285 4 329 298 321 333 308 299 277 247 264 237 193 271 304 271 154 284 267 228 218 221 191 231 225 204 143 137 151 155 153 153 151 151
Height
1481 1479 1477 1476 1475 1474 1473 1472 1471 1469 1468 1468 1467 1466 1467 1470 1470 1470 1469 1472 1473 1473 1477 1479 1483 1485 1489 1491 1495 1498 1500 1501 1496 1494 1497 1503 1506 1514 1519 1521 1528 1531 1533 1535 1538
1481 1478 1476 1474 1472 1472 1472 1471 1469 1469 1467 1467 1466 1466 1465 1468 1468 1467 1467 1469 1471 1473 1475 1480 1481 1486 1490 1493 1496 1496 1500 1496 1500 1497 1495 1501 1507 1516 1522 1526 1533 1534 1536 1535 1538
1480 1477 1475 1473 1470 1468 1467 1467 1467 1466 1465 1465 1464 1465 1467 1467 1469 1463 1463 1466 1469 1472 1474 1479 1482 1484 1487 1490 1493 1495 1499 1498 1503 1500 1498 1505 1513 1519 1523 1531 1533 1533 1534 1535 1537
1479 1476 1473 1470 1468 1465 1464 1464 1463 1464 1465 1465 1464 1464 1466 1467 1467 1462 1463 1464 1466 1470 1473 1476 1480 1483 1484 1486 1491 1497 1498 1500 1505 1502 1503 1508 1515 1523 1525 1533 1533 1534 1534 1534 1535
1478 1474 1471 1468 1466 1463 1461 1460 1461 1462 1463 1464 1464 1465 1466 1468 1465 1462 1462 1462 1464 1469 1471 1475 1479 1483 1483 1483 1486 1489 1499 1504 1507 1504 1508 1512 1518 1523 1533 1531 1532 1535 1535 1535 1536
1476 1472 1468 1465 1463 1461 1459 1458 1459 1460 1462 1463 1464 1466 1467 1467 1464 1463 1463 1462 1463 1467 1471 1476 1478 1480 1480 1479 1481 1483 1495 1506 1507 1506 1512 1515 1522 1522 1533 1534 1531 1533 1536 1533 1535
1475 1471 1466 1463 1461 1459 1458 1457 1458 1459 1460 1462 1464 1464 1466 1463 1462 1463 1463 1462 1463 1467 1472 1476 1479 1480 1480 1481 1486 1492 1503 1504 1508 1508 1510 1514 1525 1521 1527 1532 1531 1531 1535 1534 1534
1472 1469 1466 1462 1459 1458 1457 1457 1457 1458 1460 1461 1464 1465 1463 1461 1461 1462 1462 1462 1464 1468 1472 1475 1477 1478 1478 1482 1489 1489 1495 1500 1503 1506 1510 1512 1505 1522 1527 1529 1530 1531 1532 1533 1535
1471 1468 1465 1461 1458 1457 1457 1456 1457 1458 1460 1462 1464 1464 1463 1459 1459 1459 1461 1463 1465 1469 1471 1475 1476 1477 1479 1482 1489 1487 1492 1491 1502 1503 1507 1512 1512 1524 1528 1526 1526 1527 1529 1533 1535
1470 1467 1463 1461 1459 1458 1458 1458 1458 1459 1460 1463 1464 1467 1460 1460 1458 1459 1461 1463 1466 1469 1472 1473 1475 1476 1479 1481 1489 1487 1487 1482 1489 1495 1501 1506 1511 1517 1521 1522 1525 1528 1530 1531 1533
1470 1466 1462 1459 1458 1459 1460 1461 1465 1464 1462 1458 1458 1457 1457 1458 1458 1459 1461 1464 1467 1470 1470 1472 1475 1472 1474 1474 1473 1471 1476 1480 1482 1488 1494 1498 1505 1513 1518 1522 1524 1527 1528 1528 1531
1471 1467 1462 1459 1460 1462 1463 1463 1465 1466 1461 1455 1456 1457 1456 1457 1458 1459 1462 1464 1465 1467 1467 1471 1469 1467 1469 1469 1472 1470 1471 1474 1489 1491 1495 1496 1497 1506 1512 1513 1517 1520 1523 1526 1527
1472 1467 1463 1461 1463 1466 1465 1465 1465 1464 1463 1450 1452 1455 1457 1457 1455 1456 1460 1460 1462 1464 1464 1463 1462 1464 1463 1465 1467 1468 1470 1471 1479 1492 1495 1497 1495 1504 1506 1510 1515 1518 1520 1522 1523
1473 1470 1467 1464 1466 1466 1468 1466 1466 1465 1460 1451 1453 1453 1455 1456 1455 1453 1455 1460 1459 1459 1460 1460 1456 1458 1461 1461 1462 1468 1464 1465 1483 1489 1496 1491 1496 1482 1489 1501 1507 1511 1513 1515 1518
1473 1471 1470 1466 1465 1468 1468 1466 1466 1466 1457 1450 1452 1452 1454 1456 1454 1452 1454 1458 1458 1456 1457 1456 1454 1456 1456 1456 1457 1460 1462 1465 1478 1485 1480 1493 1498 1477 1482 1498 1496 1496 1500 1507 1512
1474 1470 1468 1468 1468 1467 1467 1468 1467 1465 1456 1447 1449 1451 1452 1453 1452 1454 1454 1457 1456 1457 1451 1450 1450 1451 1452 1453 1455 1458 1465 1467 1476 1483 1490 1479 1487 1474 1481 1472 1473 1488 1498 1504 1509
1473 1472 1469 1468 1469 1468 1468 1469 1468 1459 1442 1446 1445 1445 1447 1447 1449 1451 1453 1454 1455 1461 1458 1449 1446 1447 1448 1452 1453 1460 1470 1487 1488 1486 1475 1466 1474 1459 1453 1455 1460 1471 1486 1497 1504
1471 1470 1469 1468 1467 1468 1469 1470 1467 1443 1441 1446 1446 1443 1445 1441 1443 1445 1451 1454 1450 1448 1448 1452 1450 1442 1443 1444 1449 1452 1458 1464 1466 1466 1463 1455 1454 1451 1459 1459 1457 1463 1477 1489 1498
1470 1469 1469 1467 1467 1468 1470 1467 1454 1453 1454 1452 1448 1444 1440 1436 1441 1445 1451 1446 1448 1447 1451 1444 1436 1425 1428 1433 1441 1448 1449 1445 1451 1445 1452 1452 1449 1460 1461 1461 1460 1464 1474 1485 1494
1469 1468 1468 1467 1466 1467 1469 1459 1451 1454 1457 1455 1452 1440 1441 1442 1451 1449 1449 1443 1440 1441 1446 1445 1440 1422 1423 1431 1432 1432 1441 1455 1453 1457 1454 1445 1440 1437 1460 1461 1462 1468 1475 1485 1492
1467 1467 1465 1466 1465 1466 1464 1454 1451 1453 1457 1456 1452 1449 1446 1446 1445 1447 1445 1442 1445 1440 1439 1444 1442 1432 1425 1422 1426 1429 1432 1434 1436 1437 1441 1438 1430 1445 1444 1450 1453 1465 1474 1482 1491
1467 1466 1464 1465 1468 1460 1457 1453 1456 1452 1453 1454 1452 1451 1451 1448 1449 1448 1448 1443 1443 1445 1442 1442 1436 1425 1426 1424 1424 1418 1419 1423 1428 1426 1426 1432 1430 1448 1444 1446 1456 1467 1475 1484 1491
1467 1465 1463 1464 1462 1455 1452 1454 1455 1455 1453 1450 1448 1447 1446 1446 1452 1443 1440 1445 1444 1446 1444 1446 1437 1424 1422 1430 1432 1427 1429 1421 1420 1424 1420 1429 1420 1448 1446 1452 1458 1465 1475 1484 1491
1469 1464 1462 1462 1460 1461 1460 1454 1453 1453 1454 1452 1449 1448 1449 1448 1446 1447 1442 1445 1446 1446 1448 1449 1440 1433 1425 1428 1434 1430 1426 1419 1418 1421 1412 1409 1433 1454 1449 1451 1460 1466 1473 1482 1490
1468 1465 1463 1459 1458 1459 1459 1458 1456 1454 1452 1453 1450 1447 1447 1454 1449 1449 1443 1441 1445 1446 1447 1448 1440 1433 1426 1421 1425 1425 1426 1421 1416 1410 1413 1405 1410 1433 1437 1444 1455 1464 1474 1479 1487
1469 1468 1465 1461 1459 1461 1460 1457 1455 1455 1455 1451 1451 1450 1448 1447 1448 1452 1450 1448 1447 1446 1445 1447 1439 1435 1428 1420 1423 1422 1420 1417 1415 1413 1410 1418 1423 1432 1437 1447 1456 1463 1470 1478 1484
1470 1468 1467 1458 1454 1456 1455 1455 1456 1458 1456 1454 1454 1455 1453 1450 1450 1448 1448 1447 1446 1447 1446 1448 1444 1440 1427 1425 1426 1422 1416 1411 1405 1404 1408 1407 1410 1434 1441 1447 1452 1460 1469 1477 1484